Time,TemperatureF,DewpointF,PressureIn,WindDirection,WindDirectionDegrees,WindSpeedMPH,WindSpeedGustMPH,Humidity,HourlyPrecipIn,Conditions,Clouds,dailyrainin,SoftwareType,DateUTC
2013-03-24 00:00:00,47.3,32.0,30.06,West,272,0.0,0.0,46,0.00,,,-99.99,wx200d/1.3,2013-03-24 07:00:00,
2013-03-24 00:15:00,47.3,32.0,30.06,West,272,0.0,0.0,49,0.00,,,-99.99,wx200d/1.3,2013-03-24 07:15:00,
2013-03-24 00:30:00,47.3,32.0,30.06,West,272,0.0,0.0,49,0.00,,,-99.99,wx200d/1.3,2013-03-24 07:30:00,
2013-03-24 00:45:00,47.3,32.0,30.06,West,272,0.0,0.0,50,0.00,,,-99.99,wx200d/1.3,2013-03-24 07:45:00,
2013-03-24 01:00:00,47.5,32.0,30.06,West,274,0.0,0.0,53,0.00,,,-99.99,wx200d/1.3,2013-03-24 08:00:00,
2013-03-24 01:15:00,47.3,32.0,30.06,West,274,0.0,0.0,53,0.00,,,-99.99,wx200d/1.3,2013-03-24 08:15:00,
2013-03-24 01:30:00,47.1,32.0,30.06,West,274,0.0,0.0,54,0.00,,,-99.99,wx200d/1.3,2013-03-24 08:30:00,
2013-03-24 01:45:00,46.9,32.0,30.06,West,274,0.0,0.0,54,0.00,,,-99.99,wx200d/1.3,2013-03-24 08:45:00,
2013-03-24 02:00:00,46.8,32.0,30.06,West,274,0.0,0.0,55,0.00,,,-99.99,wx200d/1.3,2013-03-24 09:00:00,
2013-03-24 02:15:00,46.6,32.0,30.06,West,274,0.0,0.0,57,0.00,,,-99.99,wx200d/1.3,2013-03-24 09:15:00,
2013-03-24 02:30:00,46.6,34.0,30.06,West,274,0.0,0.0,59,0.00,,,-99.99,wx200d/1.3,2013-03-24 09:30:00,
2013-03-24 02:45:00,46.0,34.0,30.06,West,274,0.0,0.0,60,0.00,,,-99.99,wx200d/1.3,2013-03-24 09:45:00,
2013-03-24 03:00:00,46.0,34.0,30.06,West,274,0.0,0.0,60,0.00,,,-99.99,wx200d/1.3,2013-03-24 10:00:00,
2013-03-24 03:15:00,46.0,34.0,30.06,West,274,0.0,0.0,62,0.00,,,-99.99,wx200d/1.3,2013-03-24 10:15:00,
2013-03-24 03:30:00,46.0,34.0,30.06,West,274,0.0,0.0,62,0.00,,,-99.99,wx200d/1.3,2013-03-24 10:30:00,
2013-03-24 03:45:00,46.0,34.0,30.06,West,274,0.0,0.0,63,0.00,,,-99.99,wx200d/1.3,2013-03-24 10:45:00,
2013-03-24 04:00:00,46.0,36.0,30.06,West,274,0.0,0.0,64,0.00,,,-99.99,wx200d/1.3,2013-03-24 11:00:00,
2013-03-24 04:15:00,46.0,36.0,30.06,West,274,0.0,0.0,64,0.00,,,-99.99,wx200d/1.3,2013-03-24 11:15:00,
2013-03-24 04:30:00,45.9,36.0,30.06,West,274,0.0,0.0,64,0.00,,,-99.99,wx200d/1.3,2013-03-24 11:30:00,
2013-03-24 04:45:00,45.9,36.0,30.06,West,274,0.0,0.0,65,0.00,,,-99.99,wx200d/1.3,2013-03-24 11:45:00,
2013-03-24 05:00:00,45.7,36.0,30.06,West,274,0.0,0.0,65,0.00,,,-99.99,wx200d/1.3,2013-03-24 12:00:00,
2013-03-24 05:15:00,45.7,36.0,30.03,West,274,0.0,0.0,66,0.00,,,-99.99,wx200d/1.3,2013-03-24 12:15:00,
2013-03-24 05:30:00,45.5,36.0,30.06,West,274,0.0,0.0,66,0.00,,,-99.99,wx200d/1.3,2013-03-24 12:30:00,
2013-03-24 05:45:00,45.5,36.0,30.06,West,274,0.0,0.0,67,0.00,,,-99.99,wx200d/1.3,2013-03-24 12:45:00,
2013-03-24 06:00:00,45.3,36.0,30.06,West,274,0.0,0.0,69,0.00,,,-99.99,wx200d/1.3,2013-03-24 13:00:00,
2013-03-24 06:15:00,45.5,37.0,30.06,West,274,0.0,0.0,70,0.00,,,-99.99,wx200d/1.3,2013-03-24 13:15:00,
2013-03-24 06:30:00,45.9,37.0,30.06,West,274,0.0,0.0,71,0.00,,,-99.99,wx200d/1.3,2013-03-24 13:30:00,
2013-03-24 06:45:00,45.7,37.0,30.06,West,274,0.0,0.0,72,0.00,,,-99.99,wx200d/1.3,2013-03-24 13:45:00,
2013-03-24 07:00:00,45.3,36.0,30.06,West,274,0.0,0.0,72,0.00,,,-99.99,wx200d/1.3,2013-03-24 14:00:00,
2013-03-24 07:15:00,45.9,37.0,30.06,West,274,0.0,0.0,73,0.00,,,-99.99,wx200d/1.3,2013-03-24 14:15:00,
2013-03-24 07:30:00,46.2,39.0,30.06,West,274,0.0,0.0,74,0.00,,,-99.99,wx200d/1.3,2013-03-24 14:30:00,
2013-03-24 07:45:00,47.3,41.0,30.06,West,274,0.0,0.0,74,0.00,,,-99.99,wx200d/1.3,2013-03-24 14:45:00,
2013-03-24 08:00:00,48.2,39.0,30.06,West,274,0.0,0.0,73,0.00,,,-99.99,wx200d/1.3,2013-03-24 15:00:00,
2013-03-24 08:15:00,49.5,41.0,30.09,West,274,0.0,0.0,73,0.00,,,-99.99,wx200d/1.3,2013-03-24 15:15:00,
2013-03-24 08:30:00,50.7,41.0,30.09,West,274,0.0,0.0,71,0.00,,,-99.99,wx200d/1.3,2013-03-24 15:30:00,
2013-03-24 08:45:00,51.3,39.0,30.09,West,274,0.0,0.0,62,0.00,,,-99.99,wx200d/1.3,2013-03-24 15:45:00,
2013-03-24 09:00:00,51.8,37.0,30.09,West,274,0.0,0.0,58,0.00,,,-99.99,wx200d/1.3,2013-03-24 16:00:00,
2013-03-24 09:15:00,52.3,36.0,30.09,West,274,0.0,0.0,54,0.00,,,-99.99,wx200d/1.3,2013-03-24 16:15:00,
2013-03-24 09:30:00,53.2,36.0,30.09,West,274,0.0,0.0,49,0.00,,,-99.99,wx200d/1.3,2013-03-24 16:30:00,
2013-03-24 09:45:00,54.1,32.0,30.09,West,274,0.0,0.0,44,0.00,,,-99.99,wx200d/1.3,2013-03-24 16:45:00,
2013-03-24 10:00:00,55.0,32.0,30.09,WNW,285,0.0,2.2,40,0.00,,,-99.99,wx200d/1.3,2013-03-24 17:00:00,
2013-03-24 10:15:00,55.8,32.0,30.09,West,271,0.0,0.0,39,0.00,,,-99.99,wx200d/1.3,2013-03-24 17:15:00,
2013-03-24 10:30:00,56.3,32.0,30.09,West,270,0.0,0.0,38,0.00,,,-99.99,wx200d/1.3,2013-03-24 17:30:00,
2013-03-24 10:45:00,57.2,32.0,30.09,WNW,295,0.0,0.0,37,0.00,,,-99.99,wx200d/1.3,2013-03-24 17:45:00,
2013-03-24 11:00:00,57.6,32.0,30.09,West,277,0.0,0.0,35,0.00,,,-99.99,wx200d/1.3,2013-03-24 18:00:00,
2013-03-24 11:15:00,58.3,32.0,30.09,WNW,290,0.0,0.0,34,0.00,,,-99.99,wx200d/1.3,2013-03-24 18:15:00,
2013-03-24 11:30:00,59.0,32.0,30.09,West,278,0.0,0.0,30,0.00,,,-99.99,wx200d/1.3,2013-03-24 18:30:00,
2013-03-24 11:45:00,59.9,32.0,30.09,West,269,0.0,0.0,28,0.00,,,-99.99,wx200d/1.3,2013-03-24 18:45:00,
2013-03-24 12:00:00,60.4,32.0,30.09,West,277,0.0,0.0,27,0.00,,,-99.99,wx200d/1.3,2013-03-24 19:00:00,
2013-03-24 12:15:00,60.6,32.0,30.09,NNW,328,0.0,0.0,27,0.00,,,-99.99,wx200d/1.3,2013-03-24 19:15:00,
2013-03-24 12:30:00,60.4,32.0,30.09,East,87,0.0,0.0,27,0.00,,,-99.99,wx200d/1.3,2013-03-24 19:30:00,
2013-03-24 12:45:00,60.4,32.0,30.09,SW,225,0.0,0.0,26,0.00,,,-99.99,wx200d/1.3,2013-03-24 19:45:00,
2013-03-24 13:00:00,60.8,32.0,30.09,West,265,0.0,0.0,25,0.00,,,-99.99,wx200d/1.3,2013-03-24 20:00:00,
2013-03-24 13:15:00,61.7,32.0,30.06,West,271,0.0,0.0,24,0.00,,,-99.99,wx200d/1.3,2013-03-24 20:15:00,
2013-03-24 13:30:00,62.4,32.0,30.06,West,261,0.0,0.0,24,0.00,,,-99.99,wx200d/1.3,2013-03-24 20:30:00,
2013-03-24 13:45:00,63.1,32.0,30.06,West,266,0.0,0.0,23,0.00,,,-99.99,wx200d/1.3,2013-03-24 20:45:00,
2013-03-24 14:00:00,63.1,32.0,30.06,West,273,0.0,2.7,23,0.00,,,-99.99,wx200d/1.3,2013-03-24 21:00:00,
2013-03-24 14:15:00,63.7,32.0,30.06,ESE,112,0.0,0.0,23,0.00,,,-99.99,wx200d/1.3,2013-03-24 21:15:00,
2013-03-24 14:30:00,63.7,32.0,30.03,NE,38,0.0,0.0,23,0.00,,,-99.99,wx200d/1.3,2013-03-24 21:30:00,
2013-03-24 14:45:00,63.9,32.0,30.03,West,281,0.0,0.0,24,0.00,,,-99.99,wx200d/1.3,2013-03-24 21:45:00,
2013-03-24 15:00:00,62.2,32.0,30.03,West,281,3.1,3.1,24,0.00,,,-99.99,wx200d/1.3,2013-03-24 22:00:00,
2013-03-24 15:15:00,59.5,32.0,30.03,WNW,288,3.1,3.1,26,0.00,,,-99.99,wx200d/1.3,2013-03-24 22:15:00,
2013-03-24 15:30:00,59.9,32.0,30.03,West,268,2.7,3.1,26,0.00,,,-99.99,wx200d/1.3,2013-03-24 22:30:00,
2013-03-24 15:45:00,59.2,32.0,30.03,West,274,2.7,7.6,26,0.00,,,-99.99,wx200d/1.3,2013-03-24 22:45:00,
2013-03-24 16:00:00,59.7,32.0,30.03,West,262,0.0,0.0,26,0.00,,,-99.99,wx200d/1.3,2013-03-24 23:00:00,
2013-03-24 16:15:00,60.4,32.0,30.00,West,278,0.0,2.2,26,0.00,,,-99.99,wx200d/1.3,2013-03-24 23:15:00,
2013-03-24 16:30:00,60.6,32.0,30.00,WNW,290,2.2,2.7,25,0.00,,,-99.99,wx200d/1.3,2013-03-24 23:30:00,
2013-03-24 16:45:00,59.0,32.0,30.00,WNW,286,2.2,3.1,26,0.00,,,-99.99,wx200d/1.3,2013-03-24 23:45:00,
2013-03-24 17:00:00,58.5,32.0,30.00,West,280,0.0,0.0,27,0.00,,,-99.99,wx200d/1.3,2013-03-25 00:00:00,
2013-03-24 17:15:00,58.6,32.0,30.00,WNW,287,0.0,0.0,27,0.00,,,-99.99,wx200d/1.3,2013-03-25 00:15:00,
2013-03-24 17:30:00,57.9,32.0,30.00,East,88,2.2,0.0,27,0.00,,,-99.99,wx200d/1.3,2013-03-25 00:30:00,
2013-03-24 17:45:00,57.0,32.0,30.00,East,85,2.7,0.0,30,0.00,,,-99.99,wx200d/1.3,2013-03-25 00:45:00,
2013-03-24 18:00:00,56.3,32.0,30.00,WSW,245,2.2,0.0,35,0.00,,,-99.99,wx200d/1.3,2013-03-25 01:00:00,
2013-03-24 18:15:00,55.8,32.0,30.00,North,5,0.0,0.0,35,0.00,,,-99.99,wx200d/1.3,2013-03-25 01:15:00,
2013-03-24 18:30:00,55.4,32.0,30.00,West,268,0.0,3.1,35,0.00,,,-99.99,wx200d/1.3,2013-03-25 01:30:00,
2013-03-24 18:45:00,54.3,32.0,30.00,West,267,2.7,3.1,37,0.00,,,-99.99,wx200d/1.3,2013-03-25 01:45:00,
2013-03-24 19:00:00,53.1,32.0,30.00,East,92,2.2,0.0,38,0.00,,,-99.99,wx200d/1.3,2013-03-25 02:00:00,
2013-03-24 19:15:00,51.6,32.0,29.97,WNW,291,0.0,0.0,47,0.00,,,-99.99,wx200d/1.3,2013-03-25 02:15:00,
2013-03-24 19:30:00,50.4,34.0,30.00,East,87,0.0,0.0,52,0.00,,,-99.99,wx200d/1.3,2013-03-25 02:30:00,
2013-03-24 19:45:00,49.8,36.0,30.00,East,92,0.0,0.0,56,0.00,,,-99.99,wx200d/1.3,2013-03-25 02:45:00,
2013-03-24 20:00:00,49.5,36.0,30.00,East,89,0.0,0.0,58,0.00,,,-99.99,wx200d/1.3,2013-03-25 03:00:00,
2013-03-24 20:15:00,49.1,36.0,30.00,East,87,0.0,0.0,58,0.00,,,-99.99,wx200d/1.3,2013-03-25 03:15:00,
2013-03-24 20:30:00,48.7,36.0,30.00,West,281,0.0,0.0,61,0.00,,,-99.99,wx200d/1.3,2013-03-25 03:30:00,
2013-03-24 20:45:00,48.7,36.0,30.00,ENE,65,0.0,0.0,61,0.00,,,-99.99,wx200d/1.3,2013-03-25 03:45:00,
2013-03-24 21:00:00,48.7,36.0,30.00,WNW,285,0.0,0.0,62,0.00,,,-99.99,wx200d/1.3,2013-03-25 04:00:00,
2013-03-24 21:15:00,48.7,36.0,30.00,WNW,290,0.0,0.0,63,0.00,,,-99.99,wx200d/1.3,2013-03-25 04:15:00,
2013-03-24 21:30:00,48.6,36.0,30.00,West,263,0.0,0.0,63,0.00,,,-99.99,wx200d/1.3,2013-03-25 04:30:00,
2013-03-24 21:45:00,48.6,37.0,30.00,East,81,0.0,0.0,64,0.00,,,-99.99,wx200d/1.3,2013-03-25 04:45:00,
2013-03-24 22:00:00,48.2,37.0,30.00,East,92,0.0,0.0,65,0.00,,,-99.99,wx200d/1.3,2013-03-25 05:00:00,
2013-03-24 22:15:00,48.2,37.0,30.00,West,264,0.0,0.0,65,0.00,,,-99.99,wx200d/1.3,2013-03-25 05:15:00,
2013-03-24 22:30:00,48.4,37.0,30.00,East,82,0.0,0.0,67,0.00,,,-99.99,wx200d/1.3,2013-03-25 05:30:00,
2013-03-24 22:45:00,48.4,37.0,30.00,ENE,68,0.0,0.0,67,0.00,,,-99.99,wx200d/1.3,2013-03-25 05:45:00,
2013-03-24 23:00:00,48.0,37.0,30.03,East,89,0.0,0.0,67,0.00,,,-99.99,wx200d/1.3,2013-03-25 06:00:00,
2013-03-24 23:15:00,47.8,37.0,30.03,East,89,0.0,0.0,67,0.00,,,-99.99,wx200d/1.3,2013-03-25 06:15:00,
2013-03-24 23:30:00,47.8,37.0,30.00,East,96,0.0,0.0,68,0.00,,,-99.99,wx200d/1.3,2013-03-25 06:30:00,
2013-03-24 23:45:00,48.0,39.0,30.00,East,89,0.0,0.0,69,0.00,,,-99.99,wx200d/1.3,2013-03-25 06:45:00,